Back to catalog

COSMOS 970 DEB

AliveLEO
NORAD 65005·DEBRIS·🇷🇺 Russia

Launched Dec 21, 1977 from Baikonur Cosmodrome

Loading…

Next Passes (next 24 hours)

TLE

AgingSource: Space-Track

Epoch: Sep 9, 2026, 18:32 UTC

1 65005U 77121DS  26252.77222419  .00000051  00000-0  11502-3 0  9993
2 65005  65.8869 266.0185 0171179 159.4380 201.3687 13.79424413199862

Track COSMOS 970 DEB in real time with AllMySat

Download on the App Store